Location: The Rolnick Observatory
(41.1711°N, 73.3275°W)
Time: 14:50:40
(UTC-05:00)

ISS - Visible Passes

Search period start: 17 February 2019 00:00
Search period end: 27 February 2019 00:00
Orbit: 403 x 411 km, 51.6° (Epoch: 18 February)

Date Brightness Start Highest point End Pass type
(mag) Time Alt. Az. Time Alt. Az. Time Alt. Az.
20 Feb -0.6 06:07:23 10° SSE 06:09:03 13° SE 06:10:43 10° E visible
22 Feb -2.0 05:59:23 10° SSW 06:02:21 32° SE 06:05:18 10° ENE visible
23 Feb -1.1 05:08:44 10° S 05:11:00 18° SE 05:13:17 10° E visible
24 Feb -3.8 05:52:28 10° SW 05:55:44 86° SE 05:59:00 10° NE visible
25 Feb -2.8 05:02:53 26° SSW 05:04:16 43° SE 05:07:24 10° ENE visible
26 Feb -1.2 04:13:51 20° ESE 04:13:51 20° ESE 04:15:32 10° E visible
26 Feb -3.2 05:46:35 13° W 05:49:14 41° NNW 05:52:23 10° NE visible
